Tracking 26198 objects as of 1-Oct-2022
HD Live streaming from Space Station
objects crossing your sky now

FLOCK 4X 5

Track FLOCK 4X 5 now!
10-day predictions


NORAD ID: 51004
Int'l Code: 2022-002W
Perigee: 514.1 km
Apogee: 531.9 km
Inclination: 97.5 °
Period: 94.9 minutes
Semi major axis: 6894 km
RCS: Unknown
Launch date: January 13, 2022
Source: United States (US)
Launch site: AIR FORCE EASTERN TEST RANGE (AFETR)
aabbcc
Your satellite tracking list
Your tracking list is empty




NASA's NSSDC Master Catalog

Two Line Element Set (TLE):
1 51004U 22002W   22273.45847405  .00009181  00000-0  47102-3 0  9995
2 51004  97.4742 339.0651 0012967  66.2825 293.9767 15.16684181 39338
Source of the keplerian elements: AFSPC